OCN1JR EDDN-EDDH

Flight info

Callsign OCN1JR
Flight time 0h 46m
Altitude 35000
Route ERETO1G ERETO DCT LONLI M726 LASTO M852 HLZ Z990 DIRBO T902 RARUP RARUP3P
Aircraft A320/M-SDE3FGHIRWY/LB1

Departure

Time 2026-05-03 21:55
Airport Nuremberg Airport (EDDN)

Arrival

Time 2026-05-03 22:41
Airport Hamburg Helmut Schmidt Airport (EDDH)
Time Latitude Longitude Altitude Speed Heading
2026-05-03 21:36 49.49528 11.07660 1023 ft 0 kts 188°
2026-05-03 21:49 49.49545 11.07664 1026 ft 2 kts 188°
2026-05-03 21:50 49.49562 11.07668 1026 ft 2 kts 188°
2026-05-03 21:50 49.49579 11.07670 1026 ft 2 kts 146°
2026-05-03 21:50 49.49587 11.07658 1025 ft 0 kts 103°
2026-05-03 21:51 49.49584 11.07716 1026 ft 12 kts 92°
2026-05-03 21:52 49.49571 11.07915 1025 ft 21 kts 98°
2026-05-03 21:52 49.49550 11.08121 1028 ft 19 kts 99°
2026-05-03 21:52 49.49534 11.08309 1029 ft 12 kts 82°
2026-05-03 21:52 49.49606 11.08378 1033 ft 17 kts 43°
2026-05-03 21:53 49.49598 11.08608 1036 ft 29 kts 99°
2026-05-03 21:53 49.49560 11.08987 1039 ft 42 kts 99°
2026-05-03 21:53 49.49528 11.09371 1046 ft 14 kts 72°
2026-05-03 21:53 49.49593 11.09492 1049 ft 20 kts 52°
2026-05-03 21:54 49.49688 11.09517 1052 ft 14 kts 311°
2026-05-03 21:54 49.49731 11.09222 1047 ft 63 kts 278°
2026-05-03 21:54 49.49841 11.08120 1032 ft 141 kts 278°
2026-05-03 21:54 49.50006 11.06399 1441 ft 168 kts 280°
2026-05-03 21:55 49.50180 11.04627 2411 ft 167 kts 281°
2026-05-03 21:55 49.50367 11.02785 3068 ft 179 kts 281°
2026-05-03 21:55 49.50565 11.00820 3478 ft 191 kts 281°
2026-05-03 21:55 49.50780 10.98765 3844 ft 205 kts 281°
2026-05-03 21:56 49.51013 10.96467 4140 ft 229 kts 280°
2026-05-03 21:56 49.51365 10.94040 5087 ft 235 kts 293°
2026-05-03 21:56 49.52425 10.92079 6048 ft 249 kts 328°
2026-05-03 21:56 49.54133 10.91318 6946 ft 269 kts 358°
2026-05-03 21:57 49.56071 10.91565 7739 ft 290 kts
2026-05-03 21:57 49.58073 10.91987 8988 ft 290 kts
2026-05-03 21:57 49.60090 10.92388 10077 ft 300 kts
2026-05-03 21:57 49.62235 10.92702 10830 ft 316 kts
2026-05-03 21:58 49.64474 10.92903 11582 ft 333 kts 359°
2026-05-03 21:58 49.66877 10.93015 12081 ft 359 kts
2026-05-03 21:58 49.69426 10.93673 12471 ft 386 kts 15°
2026-05-03 21:58 49.71933 10.95383 12757 ft 411 kts 32°
2026-05-03 21:59 49.74392 10.97858 13130 ft 429 kts 28°
2026-05-03 21:59 49.77227 10.99312 13756 ft 434 kts
2026-05-03 21:59 49.80257 10.99393 14445 ft 436 kts 355°
2026-05-03 21:59 49.83287 10.99024 15147 ft 437 kts 352°
2026-05-03 22:00 49.86332 10.98514 15836 ft 440 kts 352°
2026-05-03 22:00 49.89387 10.98045 16499 ft 442 kts 353°
2026-05-03 22:00 49.92464 10.97700 17110 ft 445 kts 354°
2026-05-03 22:00 49.95570 10.97488 17666 ft 448 kts 355°
2026-05-03 22:01 49.98706 10.97369 18169 ft 451 kts 356°
2026-05-03 22:01 50.01819 10.97294 18579 ft 454 kts 356°
2026-05-03 22:01 50.04989 10.97225 18991 ft 456 kts 356°
2026-05-03 22:01 50.08177 10.97143 19383 ft 459 kts 356°
2026-05-03 22:02 50.11383 10.97032 19764 ft 461 kts 356°
2026-05-03 22:02 50.14601 10.96895 20136 ft 464 kts 356°
2026-05-03 22:02 50.17840 10.96742 20490 ft 467 kts 355°
2026-05-03 22:02 50.21098 10.96585 20841 ft 469 kts 356°
2026-05-03 22:03 50.24376 10.96430 21193 ft 472 kts 356°
2026-05-03 22:03 50.27672 10.96280 21532 ft 474 kts 356°
2026-05-03 22:03 50.30979 10.96132 21868 ft 476 kts 356°
2026-05-03 22:03 50.34295 10.95984 22190 ft 478 kts 356°
2026-05-03 22:04 50.37592 10.95839 22502 ft 480 kts 356°
2026-05-03 22:04 50.40948 10.95691 22804 ft 483 kts 356°
2026-05-03 22:04 50.44312 10.95545 23103 ft 485 kts 356°
2026-05-03 22:04 50.47697 10.95398 23407 ft 487 kts 356°
2026-05-03 22:05 50.51088 10.95248 23672 ft 489 kts 356°
2026-05-03 22:05 50.54495 10.95096 23921 ft 491 kts 356°
2026-05-03 22:05 50.57903 10.94946 24252 ft 490 kts 356°
2026-05-03 22:05 50.61311 10.94796 24602 ft 489 kts 356°
2026-05-03 22:06 50.64710 10.94649 24949 ft 488 kts 356°
2026-05-03 22:06 50.68111 10.94502 25296 ft 488 kts 356°
2026-05-03 22:06 50.71503 10.94350 25643 ft 487 kts 355°
2026-05-03 22:06 50.74894 10.94191 25991 ft 487 kts 355°
2026-05-03 22:07 50.78284 10.94034 26344 ft 486 kts 356°
2026-05-03 22:07 50.81667 10.93882 26695 ft 486 kts 356°
2026-05-03 22:07 50.85050 10.93732 27071 ft 486 kts 356°
2026-05-03 22:07 50.88424 10.93586 27427 ft 485 kts 356°
2026-05-03 22:08 50.91801 10.93437 27787 ft 485 kts 355°
2026-05-03 22:08 50.95131 10.93285 28160 ft 485 kts 355°
2026-05-03 22:08 50.98508 10.93130 28536 ft 484 kts 355°
2026-05-03 22:08 51.01875 10.92972 28918 ft 483 kts 355°
2026-05-03 22:09 51.05238 10.92820 29295 ft 483 kts 355°
2026-05-03 22:09 51.08611 10.92667 29631 ft 484 kts 355°
2026-05-03 22:09 51.11988 10.92519 29972 ft 485 kts 355°
2026-05-03 22:10 51.18726 10.92215 30599 ft 484 kts 355°
2026-05-03 22:10 51.22099 10.92060 30889 ft 484 kts 355°
2026-05-03 22:10 51.25464 10.91901 31206 ft 484 kts 355°
2026-05-03 22:10 51.28830 10.91744 31515 ft 483 kts 355°
2026-05-03 22:11 51.32148 10.91591 31819 ft 484 kts 355°
2026-05-03 22:11 51.35518 10.91440 32099 ft 484 kts 355°
2026-05-03 22:11 51.38897 10.91287 32403 ft 484 kts 355°
2026-05-03 22:11 51.42255 10.91130 32698 ft 484 kts 355°
2026-05-03 22:12 51.45628 10.90969 32994 ft 483 kts 355°
2026-05-03 22:12 51.48999 10.90810 33303 ft 483 kts 355°
2026-05-03 22:12 51.52360 10.90657 33608 ft 483 kts 355°
2026-05-03 22:12 51.55727 10.90504 33956 ft 482 kts 355°
2026-05-03 22:13 51.59078 10.90350 34269 ft 480 kts 355°
2026-05-03 22:13 51.62411 10.90201 34581 ft 478 kts 355°
2026-05-03 22:13 51.65704 10.90051 34863 ft 477 kts 355°
2026-05-03 22:14 51.72374 10.89730 34965 ft 483 kts 355°
2026-05-03 22:14 51.79122 10.89412 34973 ft 485 kts 355°
2026-05-03 22:15 51.85879 10.89098 34961 ft 486 kts 355°
2026-05-03 22:15 51.92640 10.88775 34961 ft 486 kts 355°
2026-05-03 22:16 51.99400 10.88456 34953 ft 486 kts 355°
2026-05-03 22:16 52.06160 10.88136 34966 ft 485 kts 355°
2026-05-03 22:17 52.12904 10.87816 34958 ft 485 kts 355°
2026-05-03 22:17 52.19658 10.87491 34964 ft 486 kts 355°
2026-05-03 22:18 52.26440 10.87161 34958 ft 487 kts 355°
2026-05-03 22:18 52.33187 10.86845 34957 ft 487 kts 355°
2026-05-03 22:19 52.39979 10.86530 34956 ft 488 kts 355°
2026-05-03 22:19 52.45621 10.86262 34956 ft 488 kts 355°
2026-05-03 22:20 52.53516 10.85873 34970 ft 488 kts 355°
2026-05-03 22:20 52.60295 10.85537 34957 ft 488 kts 355°
2026-05-03 22:21 52.65942 10.85260 34950 ft 487 kts 355°
2026-05-03 22:21 52.72732 10.84924 34945 ft 487 kts 355°
2026-05-03 22:22 52.79516 10.84585 34962 ft 486 kts 354°
2026-05-03 22:22 52.86232 10.83795 34964 ft 480 kts 349°
2026-05-03 22:23 52.92858 10.82448 34960 ft 478 kts 349°
2026-05-03 22:23 52.99424 10.81122 34950 ft 477 kts 349°
2026-05-03 22:24 53.05932 10.79807 34444 ft 460 kts 349°
2026-05-03 22:24 53.09085 10.79165 33675 ft 453 kts 348°
2026-05-03 22:24 53.12204 10.78524 32740 ft 449 kts 348°
2026-05-03 22:24 53.15294 10.77886 31848 ft 445 kts 348°
2026-05-03 22:25 53.18352 10.77253 31003 ft 441 kts 348°
2026-05-03 22:25 53.21383 10.76624 30162 ft 437 kts 348°
2026-05-03 22:25 53.24384 10.76002 29242 ft 433 kts 348°
2026-05-03 22:25 53.27350 10.75392 28432 ft 425 kts 348°
2026-05-03 22:26 53.30235 10.74799 27683 ft 418 kts 348°
2026-05-03 22:26 53.33096 10.74208 26950 ft 410 kts 348°
2026-05-03 22:26 53.35907 10.73626 26235 ft 404 kts 348°
2026-05-03 22:26 53.38672 10.73050 25535 ft 398 kts 348°
2026-05-03 22:27 53.41401 10.72480 24853 ft 392 kts 348°
2026-05-03 22:27 53.44091 10.71917 24187 ft 387 kts 348°
2026-05-03 22:27 53.46753 10.71360 23530 ft 383 kts 348°
2026-05-03 22:27 53.49389 10.70811 22771 ft 379 kts 348°
2026-05-03 22:28 53.51993 10.70268 22022 ft 375 kts 348°
2026-05-03 22:28 53.54536 10.69735 21301 ft 371 kts 348°
2026-05-03 22:28 53.57093 10.69024 20575 ft 361 kts 336°
2026-05-03 22:28 53.59208 10.67043 19882 ft 340 kts 310°
2026-05-03 22:29 53.60568 10.64010 19217 ft 322 kts 288°
2026-05-03 22:29 53.61112 10.60468 18552 ft 308 kts 268°
2026-05-03 22:29 53.60849 10.56970 17854 ft 299 kts 249°
2026-05-03 22:29 53.59988 10.53819 17112 ft 295 kts 242°
2026-05-03 22:30 53.59054 10.50760 16386 ft 293 kts 241°
2026-05-03 22:30 53.58121 10.47716 15685 ft 292 kts 242°
2026-05-03 22:30 53.57490 10.44500 14984 ft 294 kts 264°
2026-05-03 22:30 53.57918 10.41124 14305 ft 305 kts 294°
2026-05-03 22:31 53.59222 10.38264 13659 ft 311 kts 310°
2026-05-03 22:31 53.60873 10.35880 12905 ft 314 kts 317°
2026-05-03 22:31 53.62639 10.33721 12177 ft 313 kts 320°
2026-05-03 22:31 53.64421 10.31635 11465 ft 311 kts 323°
2026-05-03 22:32 53.66472 10.30421 10775 ft 320 kts 352°
2026-05-03 22:32 53.68704 10.30952 9628 ft 338 kts 20°
2026-05-03 22:32 53.70681 10.33250 8208 ft 355 kts 45°
2026-05-03 22:32 53.72233 10.36562 6862 ft 364 kts 56°
2026-05-03 22:33 53.73587 10.40212 5513 ft 368 kts 53°
2026-05-03 22:33 53.75493 10.42932 4676 ft 352 kts 22°
2026-05-03 22:33 53.77734 10.43790 4153 ft 323 kts 353°
2026-05-03 22:33 53.79770 10.42806 3641 ft 293 kts 322°
2026-05-03 22:34 53.81055 10.40405 3140 ft 266 kts 289°
2026-05-03 22:34 53.81237 10.37519 2968 ft 234 kts 259°
2026-05-03 22:34 53.80692 10.35129 2973 ft 208 kts 238°
2026-05-03 22:34 53.79856 10.33175 2963 ft 203 kts 233°
2026-05-03 22:35 53.78965 10.31319 2981 ft 204 kts 232°
2026-05-03 22:35 53.78059 10.29457 2999 ft 204 kts 232°
2026-05-03 22:35 53.77195 10.27690 2985 ft 187 kts 233°
2026-05-03 22:35 53.76389 10.26038 2988 ft 178 kts 232°
2026-05-03 22:36 53.75652 10.24531 3008 ft 155 kts 232°
2026-05-03 22:36 53.74992 10.23177 2990 ft 145 kts 233°
2026-05-03 22:36 53.74353 10.21868 3004 ft 145 kts 233°
2026-05-03 22:36 53.73735 10.20604 3031 ft 137 kts 233°
2026-05-03 22:37 53.73138 10.19384 2933 ft 135 kts 234°
2026-05-03 22:37 53.72542 10.18167 2793 ft 134 kts 233°
2026-05-03 22:37 53.71952 10.16960 2626 ft 133 kts 233°
2026-05-03 22:37 53.71365 10.15763 2463 ft 132 kts 233°
2026-05-03 22:38 53.70777 10.14562 2287 ft 132 kts 233°
2026-05-03 22:38 53.70191 10.13369 2111 ft 132 kts 233°
2026-05-03 22:38 53.69607 10.12178 1931 ft 131 kts 233°
2026-05-03 22:38 53.69024 10.10990 1762 ft 131 kts 232°
2026-05-03 22:39 53.68443 10.09808 1587 ft 131 kts 233°
2026-05-03 22:39 53.67862 10.08624 1406 ft 131 kts 234°
2026-05-03 22:39 53.67287 10.07431 1237 ft 130 kts 233°
2026-05-03 22:39 53.66703 10.06266 1061 ft 130 kts 232°
2026-05-03 22:40 53.66119 10.05083 843 ft 134 kts 233°
2026-05-03 22:40 53.65529 10.03870 668 ft 134 kts 233°
2026-05-03 22:40 53.64931 10.02662 486 ft 134 kts 229°
2026-05-03 22:40 53.64335 10.01468 315 ft 132 kts 228°
2026-05-03 22:41 53.63754 10.00275 159 ft 133 kts 231°
2026-05-03 22:41 53.63196 9.99145 49 ft 114 kts 230°
2026-05-03 22:41 53.62830 9.98409 44 ft 40 kts 230°
2026-05-03 22:41 53.62720 9.98396 45 ft 15 kts 136°
2026-05-03 22:42 53.62705 9.98575 47 ft 23 kts 59°
2026-05-03 22:42 53.62836 9.98851 47 ft 37 kts 50°
2026-05-03 22:42 53.63025 9.99234 47 ft 45 kts 51°
2026-05-03 22:42 53.63220 9.99653 48 ft 49 kts 48°
2026-05-03 22:43 53.63427 10.00063 48 ft 25 kts 60°